This is the latest recevied weather packets stored in our database for station/object DG3NAD-21. If no packets are shown the sender has not sent any weather packets the latest 1 day(s).
| Time | Temp. | Humidity | Pressure | Rain* | Wind** | Luminosity | Snow |
|---|---|---|---|---|---|---|---|
| 1777749176 | 19.44° C | 42% | 1019.5 hPa | - | - | - | - |
| 1777748276 | 20° C | 41% | 1019.5 hPa | - | - | - | - |
| 1777747376 | 20.56° C | 40% | 1019.4 hPa | - | - | - | - |
| 1777746476 | 21.11° C | 40% | 1019.3 hPa | - | - | - | - |
| 1777745576 | 21.67° C | 39% | 1019.2 hPa | - | - | - | - |
| 1777744675 | 22.22° C | 40% | 1019.3 hPa | - | - | - | - |
| 1777743775 | 22.78° C | 41% | 1019.3 hPa | - | - | - | - |
| 1777742875 | 23.89° C | 41% | 1019.4 hPa | - | - | - | - |
| 1777741975 | 24.44° C | 39% | 1019.4 hPa | - | - | - | - |
| 1777741075 | 24.44° C | 35% | 1019.4 hPa | - | - | - | - |
| 1777740174 | 25° C | 33% | 1019.7 hPa | - | - | - | - |
| 1777739274 | 25° C | 33% | 1019.9 hPa | - | - | - | - |
| 1777738373 | 25° C | 31% | 1020.1 hPa | - | - | - | - |
| 1777737473 | 25° C | 31% | 1020.3 hPa | - | - | - | - |
| 1777736573 | 25° C | 30% | 1020.3 hPa | - | - | - | - |
| 1777735673 | 25° C | 29% | 1020.5 hPa | - | - | - | - |
| 1777734773 | 25.56° C | 27% | 1020.7 hPa | - | - | - | - |
| 1777733872 | 25.56° C | 27% | 1020.8 hPa | - | - | - | - |
| 1777732972 | 25.56° C | 24% | 1021 hPa | - | - | - | - |
| 1777732072 | 25.56° C | 27% | 1021.1 hPa | - | - | - | - |
| 1777731172 | 25.56° C | 27% | 1021.3 hPa | - | - | - | - |
| 1777730272 | 25° C | 28% | 1021.5 hPa | - | - | - | - |
| 1777729372 | 25° C | 28% | 1021.6 hPa | - | - | - | - |
| 1777728471 | 25° C | 28% | 1021.9 hPa | - | - | - | - |
| 1777727571 | 24.44° C | 28% | 1022.1 hPa | - | - | - | - |
* Rain since midnight (hover to see other rain measurements)
** Current wind speed in m/s (hover to see current wind gust speed)